Time,TemperatureF,DewpointF,PressureIn,WindDirection,WindDirectionDegrees,WindSpeedMPH,WindSpeedGustMPH,Humidity,HourlyPrecipIn,Conditions,Clouds,dailyrainin,SoftwareType,DateUTC
2013-03-16 00:00:00,44.3,34.4,29.80,SSW,201,0.0,0.0,68,0.00,,,0.00,VWS V14.01,2013-03-16 04:00:00,
2013-03-16 00:05:00,44.1,34.6,29.80,SSW,201,0.0,0.0,69,0.00,,,0.00,VWS V14.01,2013-03-16 04:05:00,
2013-03-16 00:10:00,43.9,34.8,29.80,SSW,201,0.0,0.0,70,0.00,,,0.00,VWS V14.01,2013-03-16 04:10:00,
2013-03-16 00:15:00,43.7,34.6,29.80,SSW,201,0.0,0.0,70,0.00,,,0.00,VWS V14.01,2013-03-16 04:15:00,
2013-03-16 00:20:00,43.5,34.7,29.80,SSW,201,0.0,0.0,71,0.00,,,0.00,VWS V14.01,2013-03-16 04:20:00,
2013-03-16 00:25:00,43.2,34.8,29.80,SSW,201,0.0,0.0,72,0.00,,,0.00,VWS V14.01,2013-03-16 04:25:00,
2013-03-16 00:30:00,43.0,34.6,29.80,SSW,201,0.0,0.0,72,0.00,,,0.00,VWS V14.01,2013-03-16 04:30:00,
2013-03-16 00:35:00,42.8,34.4,29.80,SSW,201,0.0,0.0,72,0.00,,,0.00,VWS V14.01,2013-03-16 04:35:00,
2013-03-16 00:40:00,42.6,34.6,29.80,SSW,201,0.0,0.0,73,0.00,,,0.00,VWS V14.01,2013-03-16 04:40:00,
2013-03-16 00:45:00,42.4,34.4,29.80,SSW,201,0.0,0.0,73,0.00,,,0.00,VWS V14.01,2013-03-16 04:45:00,
2013-03-16 00:50:00,42.2,34.2,29.80,SSW,201,0.0,0.0,73,0.00,,,0.00,VWS V14.01,2013-03-16 04:50:00,
2013-03-16 00:55:00,42.0,34.3,29.80,SSW,201,0.0,0.0,74,0.00,,,0.00,VWS V14.01,2013-03-16 04:55:00,
2013-03-16 01:00:00,41.8,34.1,29.80,SSW,201,0.0,0.0,74,0.00,,,0.00,VWS V14.01,2013-03-16 05:00:00,
2013-03-16 01:05:00,41.6,33.9,29.80,SSW,201,0.0,0.0,74,0.00,,,0.00,VWS V14.01,2013-03-16 05:05:00,
2013-03-16 01:10:00,41.6,33.9,29.79,SSW,201,0.0,0.0,74,0.00,,,0.00,VWS V14.01,2013-03-16 05:10:00,
2013-03-16 01:15:00,41.5,34.2,29.80,SSW,201,0.0,0.0,75,0.00,,,0.00,VWS V14.01,2013-03-16 05:15:00,
2013-03-16 01:20:00,41.3,34.0,29.80,SSW,201,0.0,0.0,75,0.00,,,0.00,VWS V14.01,2013-03-16 05:20:00,
2013-03-16 01:25:00,41.2,33.9,29.80,SSW,201,0.0,0.0,75,0.00,,,0.00,VWS V14.01,2013-03-16 05:25:00,
2013-03-16 01:30:00,41.0,33.7,29.80,SSW,201,0.0,0.0,75,0.00,,,0.00,VWS V14.01,2013-03-16 05:30:00,
2013-03-16 01:35:00,40.9,33.6,29.80,SSW,201,0.0,0.0,75,0.00,,,0.00,VWS V14.01,2013-03-16 05:35:00,
2013-03-16 01:40:00,40.8,33.8,29.80,SSW,201,0.0,0.0,76,0.00,,,0.00,VWS V14.01,2013-03-16 05:40:00,
2013-03-16 01:45:00,40.8,34.2,29.80,SSW,201,0.0,0.0,77,0.00,,,0.00,VWS V14.01,2013-03-16 05:45:00,
2013-03-16 01:50:00,40.7,34.1,29.80,SSW,201,0.0,0.0,77,0.00,,,0.00,VWS V14.01,2013-03-16 05:50:00,
2013-03-16 01:55:00,40.7,34.4,29.79,SSW,201,0.0,0.0,78,0.00,,,0.00,VWS V14.01,2013-03-16 05:55:00,
2013-03-16 02:00:00,40.7,34.4,29.80,SSW,201,0.0,0.0,78,0.00,,,0.00,VWS V14.01,2013-03-16 06:00:00,
2013-03-16 02:05:00,40.7,34.4,29.79,SSW,201,0.0,0.0,78,0.00,,,0.00,VWS V14.01,2013-03-16 06:05:00,
2013-03-16 02:10:00,40.6,34.3,29.79,SSW,201,0.0,0.0,78,0.00,,,0.00,VWS V14.01,2013-03-16 06:10:00,
2013-03-16 02:15:00,40.6,34.3,29.79,SSW,201,0.0,0.0,78,0.00,,,0.00,VWS V14.01,2013-03-16 06:15:00,
2013-03-16 02:20:00,40.5,34.2,29.79,SSW,201,0.0,0.0,78,0.00,,,0.00,VWS V14.01,2013-03-16 06:20:00,
2013-03-16 02:25:00,40.4,34.1,29.80,SSW,201,0.0,0.0,78,0.00,,,0.00,VWS V14.01,2013-03-16 06:25:00,
2013-03-16 02:30:00,40.3,34.0,29.80,SSW,201,0.0,0.0,78,0.00,,,0.00,VWS V14.01,2013-03-16 06:30:00,
2013-03-16 02:35:00,40.2,34.2,29.80,SSW,201,0.0,0.0,79,0.00,,,0.00,VWS V14.01,2013-03-16 06:35:00,
2013-03-16 02:40:00,40.1,34.1,29.80,SSW,201,0.0,0.0,79,0.00,,,0.00,VWS V14.01,2013-03-16 06:40:00,
2013-03-16 02:45:00,40.0,34.0,29.80,SSW,201,0.0,0.0,79,0.00,,,0.00,VWS V14.01,2013-03-16 06:45:00,
2013-03-16 02:50:00,40.0,34.0,29.80,SSW,201,0.0,0.0,79,0.00,,,0.00,VWS V14.01,2013-03-16 06:50:00,
2013-03-16 02:55:00,40.0,34.3,29.80,SSW,201,0.0,0.0,80,0.00,,,0.00,VWS V14.01,2013-03-16 06:55:00,
2013-03-16 03:00:00,40.0,34.3,29.80,SSW,201,0.0,0.0,80,0.00,,,0.00,VWS V14.01,2013-03-16 07:00:00,
2013-03-16 03:05:00,40.0,34.3,29.80,SSW,201,0.0,0.0,80,0.00,,,0.00,VWS V14.01,2013-03-16 07:05:00,
2013-03-16 03:10:00,40.0,34.0,29.80,SSW,201,0.0,0.0,79,0.00,,,0.00,VWS V14.01,2013-03-16 07:10:00,
2013-03-16 03:15:00,39.9,34.2,29.80,SSW,201,0.0,0.0,80,0.00,,,0.00,VWS V14.01,2013-03-16 07:15:00,
2013-03-16 03:20:00,39.9,34.5,29.80,SSW,201,0.0,1.0,81,0.00,,,0.00,VWS V14.01,2013-03-16 07:20:00,
2013-03-16 03:25:00,40.0,34.7,29.80,SSW,201,0.0,0.0,81,0.00,,,0.00,VWS V14.01,2013-03-16 07:25:00,
2013-03-16 03:30:00,40.0,34.7,29.80,SSW,201,0.0,0.0,81,0.00,,,0.00,VWS V14.01,2013-03-16 07:30:00,
2013-03-16 03:35:00,40.1,34.8,29.80,SSW,201,0.0,0.0,81,0.00,,,0.00,VWS V14.01,2013-03-16 07:35:00,
2013-03-16 03:40:00,40.2,34.8,29.80,SSW,201,0.0,0.0,81,0.00,,,0.00,VWS V14.01,2013-03-16 07:40:00,
2013-03-16 03:45:00,40.3,34.9,29.80,SSW,201,0.0,0.0,81,0.00,,,0.00,VWS V14.01,2013-03-16 07:45:00,
2013-03-16 03:50:00,40.4,35.0,29.79,SSW,201,0.0,0.0,81,0.00,,,0.00,VWS V14.01,2013-03-16 07:50:00,
2013-03-16 03:55:00,40.5,34.8,29.79,SSW,201,0.0,0.0,80,0.00,,,0.00,VWS V14.01,2013-03-16 07:55:00,
2013-03-16 04:00:00,40.7,35.0,29.79,SSW,201,0.0,0.0,80,0.00,,,0.00,VWS V14.01,2013-03-16 08:00:00,
2013-03-16 04:05:00,40.9,35.5,29.80,SSW,201,0.0,0.0,81,0.00,,,0.00,VWS V14.01,2013-03-16 08:05:00,
2013-03-16 04:10:00,41.1,35.1,29.79,SSW,201,0.0,0.0,79,0.00,,,0.00,VWS V14.01,2013-03-16 08:10:00,
2013-03-16 04:15:00,41.6,35.9,29.79,SSW,201,0.0,0.0,80,0.00,,,0.00,VWS V14.01,2013-03-16 08:15:00,
2013-03-16 04:20:00,41.9,35.9,29.80,SSW,201,0.0,0.0,79,0.00,,,0.00,VWS V14.01,2013-03-16 08:20:00,
2013-03-16 04:25:00,42.4,35.7,29.80,NNE,21,0.0,1.0,77,0.00,,,0.00,VWS V14.01,2013-03-16 08:25:00,
2013-03-16 04:30:00,43.2,35.8,29.79,NNE,21,0.0,1.0,75,0.00,,,0.00,VWS V14.01,2013-03-16 08:30:00,
2013-03-16 04:35:00,43.8,36.1,29.80,NE,50,0.0,4.0,74,0.00,,,0.00,VWS V14.01,2013-03-16 08:35:00,
2013-03-16 04:40:00,44.3,35.9,29.80,NE,50,0.0,2.0,72,0.00,,,0.00,VWS V14.01,2013-03-16 08:40:00,
2013-03-16 04:45:00,44.7,36.2,29.79,NE,50,0.0,1.0,72,0.00,,,0.00,VWS V14.01,2013-03-16 08:45:00,
2013-03-16 04:50:00,44.8,36.3,29.80,NE,50,0.0,0.0,72,0.00,,,0.00,VWS V14.01,2013-03-16 08:50:00,
2013-03-16 04:55:00,44.9,36.1,29.79,NE,50,0.0,0.0,71,0.00,,,0.00,VWS V14.01,2013-03-16 08:55:00,
2013-03-16 05:00:00,45.1,36.3,29.78,NE,50,0.0,0.0,71,0.00,,,0.00,VWS V14.01,2013-03-16 09:00:00,
2013-03-16 05:05:00,45.2,36.0,29.79,NE,50,0.0,1.0,70,0.00,,,0.00,VWS V14.01,2013-03-16 09:05:00,
2013-03-16 05:10:00,45.3,36.1,29.79,NE,50,0.0,0.0,70,0.00,,,0.00,VWS V14.01,2013-03-16 09:10:00,
2013-03-16 05:15:00,45.4,36.2,29.79,NE,50,0.0,0.0,70,0.00,,,0.00,VWS V14.01,2013-03-16 09:15:00,
2013-03-16 05:20:00,45.3,36.8,29.79,NE,50,0.0,0.0,72,0.00,,,0.00,VWS V14.01,2013-03-16 09:20:00,
2013-03-16 05:25:00,45.3,36.5,29.79,NE,50,0.0,0.0,71,0.00,,,0.00,VWS V14.01,2013-03-16 09:25:00,
2013-03-16 05:30:00,45.2,36.7,29.79,NE,50,0.0,0.0,72,0.00,,,0.00,VWS V14.01,2013-03-16 09:30:00,
2013-03-16 05:35:00,45.1,36.6,29.80,NE,50,0.0,0.0,72,0.00,,,0.00,VWS V14.01,2013-03-16 09:35:00,
2013-03-16 05:40:00,45.0,36.9,29.80,NE,50,0.0,0.0,73,0.00,,,0.00,VWS V14.01,2013-03-16 09:40:00,
2013-03-16 05:45:00,44.9,36.8,29.80,NE,50,0.0,0.0,73,0.00,,,0.00,VWS V14.01,2013-03-16 09:45:00,
2013-03-16 05:50:00,44.9,36.4,29.79,NE,50,0.0,0.0,72,0.00,,,0.00,VWS V14.01,2013-03-16 09:50:00,
2013-03-16 05:55:00,44.9,36.8,29.80,NE,50,0.0,0.0,73,0.00,,,0.00,VWS V14.01,2013-03-16 09:55:00,
2013-03-16 06:00:00,44.9,36.4,29.80,NE,50,0.0,0.0,72,0.00,,,0.00,VWS V14.01,2013-03-16 10:00:00,
2013-03-16 06:05:00,44.9,36.8,29.81,NE,50,0.0,0.0,73,0.00,,,0.00,VWS V14.01,2013-03-16 10:05:00,
2013-03-16 06:10:00,44.8,37.0,29.81,NE,50,0.0,0.0,74,0.00,,,0.00,VWS V14.01,2013-03-16 10:10:00,
2013-03-16 06:15:00,44.8,36.7,29.81,NE,50,0.0,0.0,73,0.00,,,0.00,VWS V14.01,2013-03-16 10:15:00,
2013-03-16 06:20:00,44.8,37.7,29.81,NE,50,0.0,0.0,76,0.00,,,0.00,VWS V14.01,2013-03-16 10:20:00,
2013-03-16 06:25:00,44.7,36.9,29.81,NE,50,0.0,0.0,74,0.00,,,0.00,VWS V14.01,2013-03-16 10:25:00,
2013-03-16 06:30:00,44.6,36.8,29.81,NE,50,0.0,0.0,74,0.00,,,0.00,VWS V14.01,2013-03-16 10:30:00,
2013-03-16 06:35:00,44.6,37.2,29.82,NE,50,0.0,0.0,75,0.00,,,0.00,VWS V14.01,2013-03-16 10:35:00,
2013-03-16 06:40:00,44.6,37.5,29.82,NE,50,0.0,0.0,76,0.00,,,0.00,VWS V14.01,2013-03-16 10:40:00,
2013-03-16 06:45:00,44.5,37.1,29.82,NE,50,0.0,0.0,75,0.00,,,0.00,VWS V14.01,2013-03-16 10:45:00,
2013-03-16 06:50:00,44.5,37.1,29.82,NE,50,0.0,0.0,75,0.00,,,0.00,VWS V14.01,2013-03-16 10:50:00,
2013-03-16 06:55:00,44.4,37.0,29.82,NE,50,0.0,0.0,75,0.00,,,0.00,VWS V14.01,2013-03-16 10:55:00,
2013-03-16 07:00:00,44.3,36.5,29.82,NE,50,0.0,0.0,74,0.00,,,0.00,VWS V14.01,2013-03-16 11:00:00,
2013-03-16 07:05:00,44.4,36.7,29.82,NE,50,0.0,0.0,74,0.00,,,0.00,VWS V14.01,2013-03-16 11:05:00,
2013-03-16 07:10:00,44.5,36.4,29.82,NE,50,0.0,0.0,73,0.00,,,0.00,VWS V14.01,2013-03-16 11:10:00,
2013-03-16 07:15:00,44.6,37.2,29.82,NE,50,0.0,0.0,75,0.00,,,0.00,VWS V14.01,2013-03-16 11:15:00,
2013-03-16 07:20:00,44.6,36.8,29.82,NE,50,0.0,0.0,74,0.00,,,0.00,VWS V14.01,2013-03-16 11:20:00,
2013-03-16 07:25:00,44.6,36.8,29.82,NE,50,0.0,1.0,74,0.00,,,0.00,VWS V14.01,2013-03-16 11:25:00,
2013-03-16 07:30:00,44.6,36.8,29.82,NE,50,0.0,0.0,74,0.00,,,0.00,VWS V14.01,2013-03-16 11:30:00,
2013-03-16 07:35:00,44.7,36.6,29.82,NE,52,0.0,2.0,73,0.00,,,0.00,VWS V14.01,2013-03-16 11:35:00,
2013-03-16 07:40:00,44.8,36.7,29.82,NE,52,0.0,0.0,73,0.00,,,0.00,VWS V14.01,2013-03-16 11:40:00,
2013-03-16 07:45:00,44.8,36.7,29.82,NE,53,2.0,2.0,73,0.00,,,0.00,VWS V14.01,2013-03-16 11:45:00,
2013-03-16 07:50:00,44.9,36.8,29.82,East,88,1.0,3.0,73,0.00,,,0.00,VWS V14.01,2013-03-16 11:50:00,
2013-03-16 07:55:00,44.9,36.8,29.82,East,88,1.0,1.0,73,0.00,,,0.00,VWS V14.01,2013-03-16 11:55:00,
2013-03-16 08:00:00,45.0,36.9,29.82,ENE,69,1.0,3.0,73,0.00,,,0.00,VWS V14.01,2013-03-16 12:00:00,
2013-03-16 08:05:00,45.0,36.9,29.82,ENE,69,0.0,0.0,73,0.00,,,0.00,VWS V14.01,2013-03-16 12:05:00,
2013-03-16 08:10:00,45.0,36.9,29.82,ENE,69,2.0,2.0,73,0.00,,,0.00,VWS V14.01,2013-03-16 12:10:00,
2013-03-16 08:15:00,45.0,36.9,29.82,ENE,69,0.0,0.0,73,0.00,,,0.00,VWS V14.01,2013-03-16 12:15:00,
2013-03-16 08:20:00,45.0,36.9,29.82,ENE,69,0.0,0.0,73,0.00,,,0.00,VWS V14.01,2013-03-16 12:20:00,
2013-03-16 08:25:00,45.0,36.9,29.82,ENE,69,0.0,0.0,73,0.00,,,0.00,VWS V14.01,2013-03-16 12:25:00,
2013-03-16 08:30:00,45.0,36.9,29.82,ENE,69,0.0,0.0,73,0.00,,,0.00,VWS V14.01,2013-03-16 12:30:00,
2013-03-16 08:35:00,45.0,36.9,29.82,ENE,69,0.0,1.0,73,0.00,,,0.00,VWS V14.01,2013-03-16 12:35:00,
2013-03-16 08:40:00,45.1,36.6,29.82,ENE,69,0.0,2.0,72,0.00,,,0.00,VWS V14.01,2013-03-16 12:40:00,
2013-03-16 08:45:00,45.1,36.6,29.82,ENE,69,0.0,0.0,72,0.00,,,0.00,VWS V14.01,2013-03-16 12:45:00,
2013-03-16 08:50:00,45.1,36.6,29.82,East,96,0.0,0.0,72,0.00,,,0.00,VWS V14.01,2013-03-16 12:50:00,
2013-03-16 08:55:00,45.1,36.6,29.83,East,96,0.0,0.0,72,0.00,,,0.00,VWS V14.01,2013-03-16 12:55:00,
2013-03-16 09:00:00,45.1,36.6,29.83,East,96,0.0,0.0,72,0.00,,,0.00,VWS V14.01,2013-03-16 13:00:00,
2013-03-16 09:05:00,45.2,36.7,29.83,East,96,0.0,0.0,72,0.00,,,0.00,VWS V14.01,2013-03-16 13:05:00,
2013-03-16 09:10:00,45.2,36.7,29.83,East,96,0.0,1.0,72,0.00,,,0.00,VWS V14.01,2013-03-16 13:10:00,
2013-03-16 09:15:00,45.3,36.8,29.83,East,96,0.0,0.0,72,0.00,,,0.00,VWS V14.01,2013-03-16 13:15:00,
2013-03-16 09:20:00,45.3,36.5,29.83,East,96,1.0,2.0,71,0.00,,,0.00,VWS V14.01,2013-03-16 13:20:00,
2013-03-16 09:25:00,45.4,36.6,29.83,East,96,0.0,1.0,71,0.00,,,0.00,VWS V14.01,2013-03-16 13:25:00,
2013-03-16 09:30:00,45.5,36.7,29.83,NE,52,1.0,2.0,71,0.00,,,0.00,VWS V14.01,2013-03-16 13:30:00,
2013-03-16 09:35:00,45.5,36.3,29.82,East,79,0.0,3.0,70,0.00,,,0.00,VWS V14.01,2013-03-16 13:35:00,
2013-03-16 09:40:00,45.6,36.4,29.82,ENE,58,0.0,5.0,70,0.00,,,0.00,VWS V14.01,2013-03-16 13:40:00,
2013-03-16 09:45:00,45.6,36.8,29.82,ENE,58,0.0,0.0,71,0.00,,,0.00,VWS V14.01,2013-03-16 13:45:00,
2013-03-16 09:50:00,45.7,36.5,29.82,ENE,59,0.0,0.0,70,0.00,,,0.00,VWS V14.01,2013-03-16 13:50:00,
2013-03-16 09:55:00,45.8,36.6,29.82,ENE,67,4.0,4.0,70,0.00,,,0.00,VWS V14.01,2013-03-16 13:55:00,
2013-03-16 10:00:00,45.9,36.3,29.81,ENE,76,0.0,2.0,69,0.00,,,0.00,VWS V14.01,2013-03-16 14:00:00,
2013-03-16 10:05:00,45.9,36.3,29.81,SE,132,0.0,2.0,69,0.00,,,0.00,VWS V14.01,2013-03-16 14:05:00,
2013-03-16 10:10:00,46.0,36.0,29.80,ENE,76,0.0,4.0,68,0.00,,,0.00,VWS V14.01,2013-03-16 14:10:00,
2013-03-16 10:15:00,46.1,36.1,29.80,East,87,1.0,2.0,68,0.00,,,0.00,VWS V14.01,2013-03-16 14:15:00,
2013-03-16 10:21:00,46.3,36.7,29.80,ENE,59,0.0,0.0,69,0.00,,,0.00,VWS V14.01,2013-03-16 14:21:00,
2013-03-16 10:26:00,46.6,36.6,29.80,SE,124,1.0,1.0,68,0.00,,,0.00,VWS V14.01,2013-03-16 14:26:00,
2013-03-16 10:31:00,46.7,36.3,29.80,SE,130,4.0,5.0,67,0.00,,,0.00,VWS V14.01,2013-03-16 14:31:00,
2013-03-16 10:36:00,46.7,36.3,29.78,NE,56,0.0,0.0,67,0.00,,,0.00,VWS V14.01,2013-03-16 14:36:00,
2013-03-16 10:41:00,46.7,36.3,29.77,SE,143,1.0,1.0,67,0.00,,,0.00,VWS V14.01,2013-03-16 14:41:00,
2013-03-16 10:46:00,46.8,36.4,29.78,ENE,65,5.0,5.0,67,0.00,,,0.00,VWS V14.01,2013-03-16 14:46:00,
2013-03-16 10:51:00,47.1,37.1,29.78,East,96,3.0,4.0,68,0.00,,,0.00,VWS V14.01,2013-03-16 14:51:00,
2013-03-16 10:56:00,47.4,37.0,29.79,ENE,65,5.0,5.0,67,0.00,,,0.00,VWS V14.01,2013-03-16 14:56:00,
2013-03-16 11:01:00,47.6,36.8,29.78,NE,34,2.0,7.0,66,0.00,,,0.00,VWS V14.01,2013-03-16 15:01:00,
2013-03-16 11:06:00,47.6,36.8,29.78,ENE,63,0.0,1.0,66,0.00,,,0.00,VWS V14.01,2013-03-16 15:06:00,
2013-03-16 11:11:00,47.8,37.0,29.78,SE,138,0.0,0.0,66,0.00,,,0.00,VWS V14.01,2013-03-16 15:11:00,
2013-03-16 11:15:00,47.9,36.7,29.78,ENE,61,0.0,3.0,65,0.00,,,0.00,VWS V14.01,2013-03-16 15:15:00,
2013-03-16 11:21:00,48.0,36.8,29.78,East,89,2.0,6.0,65,0.00,,,0.00,VWS V14.01,2013-03-16 15:21:00,
2013-03-16 11:25:00,48.1,37.7,29.77,East,89,0.0,1.0,67,0.00,,,0.00,VWS V14.01,2013-03-16 15:25:00,
2013-03-16 11:31:00,48.2,37.4,29.76,SE,144,0.0,1.0,66,0.00,,,0.00,VWS V14.01,2013-03-16 15:31:00,
2013-03-16 11:36:00,48.3,37.9,29.76,SE,144,0.0,0.0,67,0.00,,,0.00,VWS V14.01,2013-03-16 15:36:00,
2013-03-16 11:41:00,48.6,37.4,29.77,NNE,13,1.0,1.0,65,0.00,,,0.00,VWS V14.01,2013-03-16 15:41:00,
2013-03-16 11:46:00,48.8,37.6,29.77,East,80,0.0,1.0,65,0.00,,,0.00,VWS V14.01,2013-03-16 15:46:00,
2013-03-16 11:51:00,49.0,37.4,29.77,NE,45,0.0,4.0,64,0.00,,,0.00,VWS V14.01,2013-03-16 15:51:00,
2013-03-16 11:56:00,49.2,38.0,29.77,ESE,118,1.0,4.0,65,0.00,,,0.00,VWS V14.01,2013-03-16 15:56:00,
2013-03-16 12:01:00,49.4,38.1,29.76,East,84,1.0,1.0,65,0.00,,,0.00,VWS V14.01,2013-03-16 16:01:00,
2013-03-16 12:06:00,49.7,38.0,29.75,NE,50,1.0,3.0,64,0.00,,,0.00,VWS V14.01,2013-03-16 16:06:00,
2013-03-16 12:11:00,50.2,38.1,29.75,ENE,66,4.0,5.0,63,0.00,,,0.00,VWS V14.01,2013-03-16 16:11:00,
2013-03-16 12:15:00,50.6,38.1,29.75,NNE,30,0.0,1.0,62,0.00,,,0.00,VWS V14.01,2013-03-16 16:15:00,
2013-03-16 12:20:00,50.9,38.4,29.75,East,82,0.0,2.0,62,0.00,,,0.00,VWS V14.01,2013-03-16 16:20:00,
2013-03-16 12:26:00,51.4,38.4,29.75,NNE,26,2.0,5.0,61,0.00,,,0.00,VWS V14.01,2013-03-16 16:26:00,
2013-03-16 12:31:00,51.6,38.2,29.74,ENE,69,7.0,7.0,60,0.00,,,0.00,VWS V14.01,2013-03-16 16:31:00,
2013-03-16 12:36:00,51.5,38.5,29.74,NE,55,0.0,5.0,61,0.00,,,0.00,VWS V14.01,2013-03-16 16:36:00,
2013-03-16 12:41:00,51.6,38.6,29.74,SE,137,2.0,5.0,61,0.00,,,0.00,VWS V14.01,2013-03-16 16:41:00,
2013-03-16 12:46:00,51.7,38.7,29.73,East,81,1.0,1.0,61,0.00,,,0.00,VWS V14.01,2013-03-16 16:46:00,
2013-03-16 12:51:00,52.2,39.6,29.73,ENE,75,1.0,2.0,62,0.00,,,0.00,VWS V14.01,2013-03-16 16:51:00,
2013-03-16 12:56:00,52.5,39.0,29.73,East,96,0.0,3.0,60,0.00,,,0.00,VWS V14.01,2013-03-16 16:56:00,
2013-03-16 13:01:00,52.4,38.5,29.73,SE,141,1.0,2.0,59,0.00,,,0.00,VWS V14.01,2013-03-16 17:01:00,
2013-03-16 13:06:00,52.3,38.8,29.73,SE,135,0.0,4.0,60,0.00,,,0.00,VWS V14.01,2013-03-16 17:06:00,
2013-03-16 13:11:00,52.3,38.8,29.73,NE,53,0.0,5.0,60,0.00,,,0.00,VWS V14.01,2013-03-16 17:11:00,
2013-03-16 13:16:00,52.3,38.8,29.73,East,88,0.0,1.0,60,0.00,,,0.00,VWS V14.01,2013-03-16 17:16:00,
2013-03-16 13:21:00,52.3,38.8,29.73,ENE,71,4.0,6.0,60,0.00,,,0.00,VWS V14.01,2013-03-16 17:21:00,
2013-03-16 13:26:00,52.3,39.3,29.73,ENE,62,0.0,1.0,61,0.00,,,0.00,VWS V14.01,2013-03-16 17:26:00,
2013-03-16 13:31:00,52.3,38.8,29.73,East,88,0.0,1.0,60,0.00,,,0.00,VWS V14.01,2013-03-16 17:31:00,
2013-03-16 13:36:00,52.4,38.9,29.72,East,88,0.0,0.0,60,0.00,,,0.00,VWS V14.01,2013-03-16 17:36:00,
2013-03-16 13:41:00,52.4,38.9,29.71,SE,144,4.0,4.0,60,0.00,,,0.00,VWS V14.01,2013-03-16 17:41:00,
2013-03-16 13:46:00,52.5,39.5,29.70,ESE,110,0.0,0.0,61,0.00,,,0.00,VWS V14.01,2013-03-16 17:46:00,
2013-03-16 13:51:00,52.8,39.3,29.70,SSE,148,4.0,7.0,60,0.00,,,0.00,VWS V14.01,2013-03-16 17:51:00,
2013-03-16 13:56:00,53.1,39.6,29.69,SE,138,0.0,6.0,60,0.00,,,0.00,VWS V14.01,2013-03-16 17:56:00,
2013-03-16 14:01:00,53.2,39.7,29.69,SSE,155,1.0,6.0,60,0.00,,,0.00,VWS V14.01,2013-03-16 18:01:00,
2013-03-16 14:05:00,53.3,39.8,29.69,NE,44,0.0,4.0,60,0.00,,,0.00,VWS V14.01,2013-03-16 18:05:00,
2013-03-16 14:10:00,53.6,40.1,29.68,SE,144,0.0,1.0,60,0.00,,,0.00,VWS V14.01,2013-03-16 18:10:00,
2013-03-16 14:15:00,53.9,39.9,29.67,SE,128,1.0,4.0,59,0.00,,,0.00,VWS V14.01,2013-03-16 18:15:00,
2013-03-16 14:21:00,54.1,40.1,29.68,ENE,73,1.0,1.0,59,0.00,,,0.00,VWS V14.01,2013-03-16 18:21:00,
2013-03-16 14:26:00,54.8,40.8,29.68,ESE,105,1.0,4.0,59,0.00,,,0.00,VWS V14.01,2013-03-16 18:26:00,
2013-03-16 14:31:00,55.5,41.0,29.68,ESE,123,1.0,5.0,58,0.00,,,0.00,VWS V14.01,2013-03-16 18:31:00,
2013-03-16 14:35:00,55.5,40.5,29.68,NE,42,4.0,7.0,57,0.00,,,0.00,VWS V14.01,2013-03-16 18:35:00,
2013-03-16 14:40:00,55.6,41.1,29.68,SSE,155,0.0,4.0,58,0.00,,,0.00,VWS V14.01,2013-03-16 18:40:00,
2013-03-16 14:45:00,55.9,40.9,29.67,East,82,5.0,6.0,57,0.00,,,0.00,VWS V14.01,2013-03-16 18:45:00,
2013-03-16 14:50:00,56.0,40.5,29.67,ENE,58,6.0,6.0,56,0.00,,,0.00,VWS V14.01,2013-03-16 18:50:00,
2013-03-16 14:55:00,55.9,40.9,29.67,NE,40,1.0,2.0,57,0.00,,,0.00,VWS V14.01,2013-03-16 18:55:00,
2013-03-16 15:00:00,56.2,41.2,29.67,East,82,0.0,1.0,57,0.00,,,0.00,VWS V14.01,2013-03-16 19:00:00,
2013-03-16 15:05:00,56.4,41.4,29.67,SE,125,0.0,2.0,57,0.00,,,0.00,VWS V14.01,2013-03-16 19:05:00,
2013-03-16 15:10:00,56.4,41.4,29.67,SSE,168,1.0,4.0,57,0.00,,,0.00,VWS V14.01,2013-03-16 19:10:00,
2013-03-16 15:15:00,56.1,41.1,29.67,ENE,61,0.0,5.0,57,0.00,,,0.00,VWS V14.01,2013-03-16 19:15:00,
2013-03-16 15:20:00,55.8,41.3,29.67,SSE,157,0.0,1.0,58,0.00,,,0.00,VWS V14.01,2013-03-16 19:20:00,
2013-03-16 15:25:00,55.5,41.4,29.67,East,80,0.0,1.0,59,0.00,,,0.00,VWS V14.01,2013-03-16 19:25:00,
2013-03-16 15:30:00,55.2,40.7,29.67,ESE,122,0.0,4.0,58,0.00,,,0.00,VWS V14.01,2013-03-16 19:30:00,
2013-03-16 15:35:00,54.8,40.8,29.67,ENE,63,2.0,5.0,59,0.00,,,0.00,VWS V14.01,2013-03-16 19:35:00,
2013-03-16 15:41:00,54.4,40.8,29.67,East,88,0.0,1.0,60,0.00,,,0.00,VWS V14.01,2013-03-16 19:41:00,
2013-03-16 15:46:00,54.4,40.8,29.67,ENE,61,0.0,5.0,60,0.00,,,0.00,VWS V14.01,2013-03-16 19:46:00,
2013-03-16 15:51:00,54.4,41.2,29.67,ENE,58,0.0,0.0,61,0.00,,,0.00,VWS V14.01,2013-03-16 19:51:00,
2013-03-16 15:56:00,54.4,41.2,29.67,ESE,110,0.0,2.0,61,0.00,,,0.00,VWS V14.01,2013-03-16 19:56:00,
2013-03-16 16:01:00,54.5,40.9,29.67,ENE,69,0.0,0.0,60,0.00,,,0.00,VWS V14.01,2013-03-16 20:01:00,
2013-03-16 16:06:00,54.2,41.1,29.68,NE,46,2.0,5.0,61,0.00,,,0.00,VWS V14.01,2013-03-16 20:06:00,
2013-03-16 16:11:00,53.6,41.3,29.66,NE,34,1.0,5.0,63,0.00,,,0.00,VWS V14.01,2013-03-16 20:11:00,
2013-03-16 16:16:00,53.0,41.6,29.67,NE,46,2.0,2.0,65,0.00,,,0.00,VWS V14.01,2013-03-16 20:16:00,
2013-03-16 16:21:00,52.8,41.4,29.67,NNE,22,1.0,5.0,65,0.00,,,0.00,VWS V14.01,2013-03-16 20:21:00,
2013-03-16 16:26:00,52.8,41.8,29.68,NE,49,4.0,5.0,66,0.00,,,0.00,VWS V14.01,2013-03-16 20:26:00,
2013-03-16 16:31:00,52.5,41.5,29.68,NE,46,1.0,5.0,66,0.00,,,0.00,VWS V14.01,2013-03-16 20:31:00,
2013-03-16 16:36:00,51.8,40.8,29.68,NE,46,3.0,8.0,66,0.00,,,0.00,VWS V14.01,2013-03-16 20:36:00,
2013-03-16 16:41:00,51.0,40.4,29.69,NE,44,4.0,8.0,67,0.00,,,0.00,VWS V14.01,2013-03-16 20:41:00,
2013-03-16 16:46:00,50.3,40.2,29.68,NE,53,8.0,8.0,68,0.00,,,0.00,VWS V14.01,2013-03-16 20:46:00,
2013-03-16 16:51:00,49.7,40.0,29.68,ENE,66,1.0,7.0,69,0.00,,,0.00,VWS V14.01,2013-03-16 20:51:00,
2013-03-16 16:56:00,49.1,39.4,29.68,ENE,66,2.0,9.0,69,0.00,,,0.00,VWS V14.01,2013-03-16 20:56:00,
2013-03-16 17:01:00,48.6,39.3,29.69,NNE,24,4.0,6.0,70,0.00,,,0.00,VWS V14.01,2013-03-16 21:01:00,
2013-03-16 17:06:00,48.2,38.9,29.69,ENE,66,7.0,8.0,70,0.00,,,0.00,VWS V14.01,2013-03-16 21:06:00,
2013-03-16 17:10:00,47.9,39.0,29.69,ENE,71,6.0,6.0,71,0.00,,,0.00,VWS V14.01,2013-03-16 21:10:00,
2013-03-16 17:15:00,47.8,38.5,29.69,ENE,63,3.0,8.0,70,0.00,,,0.00,VWS V14.01,2013-03-16 21:15:00,
2013-03-16 17:21:00,47.5,38.6,29.69,NNE,24,2.0,10.0,71,0.00,,,0.00,VWS V14.01,2013-03-16 21:21:00,
2013-03-16 17:26:00,47.2,38.3,29.69,ENE,61,6.0,10.0,71,0.00,,,0.00,VWS V14.01,2013-03-16 21:26:00,
2013-03-16 17:31:00,46.9,38.0,29.69,NE,54,4.0,7.0,71,0.00,,,0.00,VWS V14.01,2013-03-16 21:31:00,
2013-03-16 17:36:00,46.9,38.4,29.69,NE,47,6.0,6.0,72,0.00,,,0.00,VWS V14.01,2013-03-16 21:36:00,
2013-03-16 17:41:00,46.8,38.3,29.69,ENE,63,1.0,6.0,72,0.00,,,0.00,VWS V14.01,2013-03-16 21:41:00,
2013-03-16 17:46:00,46.7,38.2,29.69,NE,53,0.0,8.0,72,0.00,,,0.00,VWS V14.01,2013-03-16 21:46:00,
2013-03-16 17:51:00,46.6,38.4,29.70,East,85,4.0,7.0,73,0.00,,,0.00,VWS V14.01,2013-03-16 21:51:00,
2013-03-16 17:56:00,46.3,38.1,29.70,NNE,28,2.0,9.0,73,0.00,,,0.00,VWS V14.01,2013-03-16 21:56:00,
2013-03-16 18:01:00,45.7,37.5,29.70,NNE,32,2.0,7.0,73,0.00,,,0.00,VWS V14.01,2013-03-16 22:01:00,
2013-03-16 18:06:00,45.3,37.5,29.71,NNE,32,5.0,8.0,74,0.00,,,0.00,VWS V14.01,2013-03-16 22:06:00,
2013-03-16 18:11:00,44.9,37.1,29.72,NNE,27,7.0,7.0,74,0.00,,,0.00,VWS V14.01,2013-03-16 22:11:00,
2013-03-16 18:16:00,44.6,36.8,29.72,NE,43,0.0,9.0,74,0.00,,,0.00,VWS V14.01,2013-03-16 22:16:00,
2013-03-16 18:21:00,44.4,36.7,29.72,NNE,24,2.0,8.0,74,0.00,,,0.00,VWS V14.01,2013-03-16 22:21:00,
2013-03-16 18:26:00,44.1,36.4,29.73,NE,44,5.0,6.0,74,0.00,,,0.00,VWS V14.01,2013-03-16 22:26:00,
2013-03-16 18:31:00,43.8,36.4,29.74,ENE,66,1.0,1.0,75,0.00,,,0.00,VWS V14.01,2013-03-16 22:31:00,
2013-03-16 18:35:00,43.4,35.7,29.74,ENE,70,3.0,5.0,74,0.00,,,0.00,VWS V14.01,2013-03-16 22:35:00,
2013-03-16 18:41:00,43.2,35.8,29.74,ENE,78,3.0,9.0,75,0.00,,,0.00,VWS V14.01,2013-03-16 22:41:00,
2013-03-16 18:46:00,42.9,35.5,29.74,NNE,26,6.0,7.0,75,0.00,,,0.00,VWS V14.01,2013-03-16 22:46:00,
2013-03-16 18:51:00,42.7,35.7,29.74,ENE,64,7.0,7.0,76,0.00,,,0.00,VWS V14.01,2013-03-16 22:51:00,
2013-03-16 18:56:00,42.4,35.4,29.75,NE,53,0.0,4.0,76,0.00,,,0.00,VWS V14.01,2013-03-16 22:56:00,
2013-03-16 19:01:00,42.3,35.6,29.76,NE,45,5.0,6.0,77,0.00,,,0.00,VWS V14.01,2013-03-16 23:01:00,
2013-03-16 19:06:00,42.2,35.5,29.76,ENE,64,4.0,6.0,77,0.00,,,0.00,VWS V14.01,2013-03-16 23:06:00,
2013-03-16 19:11:00,41.8,35.5,29.76,ENE,71,4.0,9.0,78,0.00,,,0.00,VWS V14.01,2013-03-16 23:11:00,
2013-03-16 19:16:00,41.6,35.6,29.77,North,11,1.0,6.0,79,0.00,,,0.00,VWS V14.01,2013-03-16 23:16:00,
2013-03-16 19:21:00,41.4,35.4,29.77,NE,46,0.0,1.0,79,0.00,,,0.00,VWS V14.01,2013-03-16 23:21:00,
2013-03-16 19:26:00,41.3,35.6,29.77,ENE,57,3.0,4.0,80,0.00,,,0.00,VWS V14.01,2013-03-16 23:26:00,
2013-03-16 19:31:00,41.2,35.5,29.78,ENE,63,5.0,8.0,80,0.00,,,0.00,VWS V14.01,2013-03-16 23:31:00,
2013-03-16 19:36:00,41.0,35.3,29.78,ESE,104,0.0,1.0,80,0.00,,,0.00,VWS V14.01,2013-03-16 23:36:00,
2013-03-16 19:41:00,41.0,35.3,29.78,East,80,2.0,4.0,80,0.00,,,0.00,VWS V14.01,2013-03-16 23:41:00,
2013-03-16 19:45:00,40.9,35.2,29.78,NE,46,0.0,1.0,80,0.00,,,0.00,VWS V14.01,2013-03-16 23:45:00,
2013-03-16 19:50:00,40.9,35.2,29.79,East,88,1.0,2.0,80,0.00,,,0.00,VWS V14.01,2013-03-16 23:50:00,
2013-03-16 19:56:00,40.9,35.2,29.80,East,91,1.0,1.0,80,0.00,,,0.00,VWS V14.01,2013-03-16 23:56:00,
2013-03-16 20:00:00,40.9,35.2,29.80,NE,55,0.0,2.0,80,0.00,,,0.00,VWS V14.01,2013-03-17 00:00:00,
2013-03-16 20:06:00,40.9,35.5,29.80,NE,55,0.0,1.0,81,0.00,,,0.00,VWS V14.01,2013-03-17 00:06:00,
2013-03-16 20:11:00,40.9,35.2,29.80,NE,44,7.0,7.0,80,0.00,,,0.00,VWS V14.01,2013-03-17 00:11:00,
2013-03-16 20:15:00,40.8,35.4,29.81,ESE,111,2.0,4.0,81,0.00,,,0.00,VWS V14.01,2013-03-17 00:15:00,
2013-03-16 20:20:00,40.7,35.3,29.81,East,84,1.0,1.0,81,0.00,,,0.00,VWS V14.01,2013-03-17 00:20:00,
2013-03-16 20:26:00,40.6,35.2,29.81,ENE,59,2.0,4.0,81,0.00,,,0.00,VWS V14.01,2013-03-17 00:26:00,
2013-03-16 20:31:00,40.4,35.3,29.82,ESE,119,1.0,2.0,82,0.00,,,0.00,VWS V14.01,2013-03-17 00:31:00,
2013-03-16 20:36:00,40.3,35.2,29.82,NE,48,2.0,5.0,82,0.00,,,0.00,VWS V14.01,2013-03-17 00:36:00,
2013-03-16 20:41:00,40.1,35.4,29.83,NE,49,0.0,3.0,83,0.00,,,0.00,VWS V14.01,2013-03-17 00:41:00,
2013-03-16 20:46:00,40.0,35.3,29.83,NE,40,0.0,0.0,83,0.00,,,0.00,VWS V14.01,2013-03-17 00:46:00,
2013-03-16 20:51:00,39.9,35.2,29.83,NE,40,0.0,0.0,83,0.00,,,0.00,VWS V14.01,2013-03-17 00:51:00,
2013-03-16 20:56:00,39.9,35.2,29.84,ENE,60,0.0,1.0,83,0.00,,,0.00,VWS V14.01,2013-03-17 00:56:00,
2013-03-16 21:01:00,40.0,35.3,29.84,NNE,32,0.0,2.0,83,0.00,,,0.00,VWS V14.01,2013-03-17 01:01:00,
2013-03-16 21:06:00,40.0,35.3,29.85,NNE,32,0.0,2.0,83,0.00,,,0.00,VWS V14.01,2013-03-17 01:06:00,
2013-03-16 21:10:00,40.1,35.4,29.85,ENE,61,0.0,4.0,83,0.00,,,0.00,VWS V14.01,2013-03-17 01:10:00,
2013-03-16 21:16:00,40.1,35.4,29.86,ENE,61,0.0,0.0,83,0.00,,,0.00,VWS V14.01,2013-03-17 01:16:00,
2013-03-16 21:21:00,40.1,35.4,29.87,NE,51,4.0,6.0,83,0.00,,,0.00,VWS V14.01,2013-03-17 01:21:00,
2013-03-16 21:26:00,40.1,35.4,29.87,NNE,27,4.0,6.0,83,0.00,,,0.00,VWS V14.01,2013-03-17 01:26:00,
2013-03-16 21:31:00,40.1,35.4,29.88,WSW,252,0.0,0.0,83,0.00,,,0.00,VWS V14.01,2013-03-17 01:31:00,
2013-03-16 21:36:00,40.0,35.0,29.88,East,84,0.0,0.0,82,0.00,,,0.00,VWS V14.01,2013-03-17 01:36:00,
2013-03-16 21:41:00,40.0,35.0,29.88,ENE,67,0.0,0.0,82,0.00,,,0.00,VWS V14.01,2013-03-17 01:41:00,
2013-03-16 21:46:00,39.9,34.9,29.88,ENE,67,0.0,1.0,82,0.00,,,0.00,VWS V14.01,2013-03-17 01:46:00,
2013-03-16 21:51:00,39.8,34.8,29.89,North,5,1.0,3.0,82,0.00,,,0.00,VWS V14.01,2013-03-17 01:51:00,
2013-03-16 21:56:00,39.7,35.0,29.89,NE,37,2.0,7.0,83,0.00,,,0.00,VWS V14.01,2013-03-17 01:56:00,
2013-03-16 22:01:00,39.6,34.9,29.89,NNE,30,4.0,6.0,83,0.00,,,0.00,VWS V14.01,2013-03-17 02:01:00,
2013-03-16 22:06:00,39.5,34.8,29.89,NE,40,0.0,2.0,83,0.00,,,0.00,VWS V14.01,2013-03-17 02:06:00,
2013-03-16 22:11:00,39.5,34.8,29.90,NE,40,0.0,0.0,83,0.00,,,0.00,VWS V14.01,2013-03-17 02:11:00,
2013-03-16 22:15:00,39.5,34.8,29.90,NE,40,0.0,0.0,83,0.00,,,0.00,VWS V14.01,2013-03-17 02:15:00,
2013-03-16 22:21:00,39.5,34.8,29.90,NE,40,0.0,0.0,83,0.00,,,0.00,VWS V14.01,2013-03-17 02:21:00,
2013-03-16 22:26:00,39.5,34.8,29.91,NE,40,0.0,0.0,83,0.00,,,0.00,VWS V14.01,2013-03-17 02:26:00,
2013-03-16 22:31:00,39.5,34.8,29.91,NE,40,0.0,0.0,83,0.00,,,0.00,VWS V14.01,2013-03-17 02:31:00,
2013-03-16 22:36:00,39.5,34.8,29.91,SE,140,1.0,2.0,83,0.00,,,0.00,VWS V14.01,2013-03-17 02:36:00,
2013-03-16 22:41:00,39.4,34.7,29.91,NE,40,0.0,0.0,83,0.00,,,0.00,VWS V14.01,2013-03-17 02:41:00,
2013-03-16 22:46:00,39.4,34.7,29.91,NE,36,0.0,4.0,83,0.00,,,0.00,VWS V14.01,2013-03-17 02:46:00,
2013-03-16 22:51:00,39.3,34.6,29.92,ENE,71,5.0,5.0,83,0.00,,,0.00,VWS V14.01,2013-03-17 02:51:00,
2013-03-16 22:56:00,39.3,34.6,29.92,ENE,63,0.0,0.0,83,0.00,,,0.00,VWS V14.01,2013-03-17 02:56:00,
2013-03-16 23:01:00,39.2,34.5,29.92,ENE,63,0.0,0.0,83,0.00,,,0.00,VWS V14.01,2013-03-17 03:01:00,
2013-03-16 23:06:00,39.2,34.5,29.93,ENE,63,1.0,2.0,83,0.00,,,0.00,VWS V14.01,2013-03-17 03:06:00,
2013-03-16 23:11:00,39.0,34.3,29.93,ENE,63,0.0,0.0,83,0.00,,,0.00,VWS V14.01,2013-03-17 03:11:00,
2013-03-16 23:16:00,39.0,34.3,29.93,ENE,63,0.0,0.0,83,0.00,,,0.00,VWS V14.01,2013-03-17 03:16:00,
2013-03-16 23:21:00,38.9,34.2,29.93,ENE,63,0.0,0.0,83,0.00,,,0.00,VWS V14.01,2013-03-17 03:21:00,
2013-03-16 23:26:00,38.9,34.2,29.93,ENE,63,0.0,0.0,83,0.00,,,0.00,VWS V14.01,2013-03-17 03:26:00,
2013-03-16 23:31:00,38.9,34.5,29.93,ENE,63,0.0,0.0,84,0.00,,,0.00,VWS V14.01,2013-03-17 03:31:00,
2013-03-16 23:36:00,38.8,34.4,29.93,North,9,0.0,4.0,84,0.00,,,0.00,VWS V14.01,2013-03-17 03:36:00,
2013-03-16 23:40:00,38.8,34.4,29.93,North,360,0.0,2.0,84,0.00,,,0.00,VWS V14.01,2013-03-17 03:40:00,
2013-03-16 23:46:00,38.8,34.4,29.93,NNW,338,0.0,0.0,84,0.00,,,0.00,VWS V14.01,2013-03-17 03:46:00,
2013-03-16 23:50:00,38.7,34.3,29.93,NNW,338,0.0,0.0,84,0.00,,,0.00,VWS V14.01,2013-03-17 03:50:00,
2013-03-16 23:55:00,38.7,34.3,29.93,NNW,338,0.0,0.0,84,0.00,,,0.00,VWS V14.01,2013-03-17 03:55:00,